When you browse on this site, cookies collect data to enhance your experience and personalize the content and advertising you see.
Visit our Privacy Policy to learn more. By continuing to use the site, you agree to this use of cookies and data.
EN

Hourly Weather Morgantown

Today, 7 August, Friday

Time Temperature Precipitation Wind Pressure Humidity
00:00 +18°C° 0 mm 0 mps 734 mmHg 96%
01:00 +17°C° 0 mm 0 mps 734 mmHg 94%
02:00 +17°C° 0 mm 0 mps 734 mmHg 94%
03:00 +17°C° 0 mm 0 mps 734 mmHg 95%
04:00 +17°C° 0 mm 0 mps 733 mmHg 95%
05:00 +17°C° 0 mm 0 mps 734 mmHg 94%
06:00 +18°C° 0 mm 0 mps 734 mmHg 94%
07:00 +19°C° 0 mm 0 mps 735 mmHg 92%
08:00 +21°C° 0.1 mm 0 mps 735 mmHg 87%
09:00 +24°C° 0.1 mm 1 mps 735 mmHg 82%
10:00 +26°C° 0.1 mm 1 mps 735 mmHg 78%
11:00 +27°C° 0.3 mm 1 mps 735 mmHg 69%
12:00 +29°C° 0.3 mm 1 mps 735 mmHg 61%
13:00 +31°C° 0.3 mm 1 mps 735 mmHg 52%
14:00 +30°C° 0.1 mm 1 mps 735 mmHg 54%
15:00 +30°C° 0.1 mm 1 mps 734 mmHg 55%
16:00 +29°C° 0.1 mm 2 mps 734 mmHg 56%
17:00 +28°C° 0.1 mm 1 mps 734 mmHg 66%
18:00 +26°C° 0.1 mm 1 mps 734 mmHg 76%
19:00 +24°C° 0.1 mm 1 mps 735 mmHg 86%
20:00 +23°C° 0 mm 1 mps 735 mmHg 88%
21:00 +21°C° 0 mm 1 mps 735 mmHg 91%
22:00 +18°C° 0 mm 0 mps 735 mmHg 93%
23:00 +18°C° 0 mm 0 mps 735 mmHg 94%

Tomorrow, 8 August, Saturday

Time Temperature Precipitation Wind Pressure Humidity
00:00 +17°C° 0 mm 0 mps 735 mmHg 94%
01:00 +17°C° 0 mm 0 mps 735 mmHg 95%
02:00 +17°C° 0 mm 0 mps 735 mmHg 95%
03:00 +16°C° 0 mm 0 mps 735 mmHg 95%
04:00 +16°C° 0 mm 0 mps 735 mmHg 95%
05:00 +17°C° 0 mm 0 mps 735 mmHg 93%
06:00 +18°C° 0 mm 0 mps 736 mmHg 91%
07:00 +19°C° 0 mm 0 mps 737 mmHg 90%
08:00 +21°C° 0 mm 0 mps 737 mmHg 79%
09:00 +26°C° 0 mm 1 mps 737 mmHg 69%
10:00 +29°C° 0 mm 1 mps 737 mmHg 58%
11:00 +29°C° 0 mm 1 mps 737 mmHg 54%
12:00 +30°C° 0 mm 1 mps 737 mmHg 49%
13:00 +31°C° 0 mm 1 mps 736 mmHg 44%
14:00 +31°C° 0 mm 1 mps 736 mmHg 44%
15:00 +31°C° 0 mm 2 mps 735 mmHg 43%
16:00 +31°C° 0 mm 2 mps 735 mmHg 42%
17:00 +29°C° 0 mm 2 mps 735 mmHg 54%
18:00 +27°C° 0 mm 1 mps 735 mmHg 65%
19:00 +24°C° 0 mm 1 mps 736 mmHg 77%
20:00 +23°C° 0 mm 1 mps 736 mmHg 79%
21:00 +22°C° 0 mm 1 mps 736 mmHg 82%
22:00 +18°C° 0 mm 0 mps 736 mmHg 85%
23:00 +18°C° 0 mm 0 mps 736 mmHg 86%

Day after tomorrow, 9 August, Sunday

Time Temperature Precipitation Wind Pressure Humidity
00:00 +17°C° 0 mm 0 mps 736 mmHg 87%
01:00 +17°C° 0 mm 0 mps 736 mmHg 89%
02:00 +16°C° 0 mm 0 mps 735 mmHg 89%
03:00 +16°C° 0 mm 0 mps 735 mmHg 90%
04:00 +16°C° 0 mm 0 mps 735 mmHg 91%
05:00 +17°C° 0 mm 0 mps 736 mmHg 88%
06:00 +18°C° 0 mm 0 mps 736 mmHg 84%
07:00 +21°C° 0 mm 1 mps 737 mmHg 81%
08:00 +24°C° 0 mm 1 mps 737 mmHg 72%
09:00 +27°C° 0 mm 1 mps 737 mmHg 62%
10:00 +29°C° 0 mm 1 mps 737 mmHg 53%
11:00 +31°C° 0 mm 1 mps 737 mmHg 47%
12:00 +32°C° 0 mm 1 mps 736 mmHg 42%
13:00 +33°C° 0 mm 1 mps 736 mmHg 36%
14:00 +34°C° 0 mm 2 mps 736 mmHg 36%
15:00 +34°C° 0 mm 2 mps 735 mmHg 36%
16:00 +34°C° 0 mm 2 mps 735 mmHg 35%
17:00 +30°C° 0 mm 1 mps 735 mmHg 47%
18:00 +27°C° 0 mm 1 mps 735 mmHg 59%
19:00 +25°C° 0 mm 1 mps 734 mmHg 71%
20:00 +24°C° 0 mm 1 mps 734 mmHg 74%
21:00 +22°C° 0 mm 1 mps 735 mmHg 77%
22:00 +21°C° 0 mm 1 mps 735 mmHg 79%
23:00 +21°C° 0 mm 1 mps 735 mmHg 81%

10 August, Monday

Time Temperature Precipitation Wind Pressure Humidity
00:00 +20°C° 0 mm 1 mps 735 mmHg 82%
01:00 +20°C° 0 mm 1 mps 735 mmHg 83%
02:00 +17°C° 0 mm 0 mps 735 mmHg 85%
03:00 +17°C° 0 mm 0 mps 734 mmHg 87%
04:00 +16°C° 0 mm 0 mps 734 mmHg 89%
05:00 +17°C° 0 mm 0 mps 735 mmHg 86%
06:00 +19°C° 0 mm 0 mps 735 mmHg 82%
07:00 +22°C° 0 mm 1 mps 735 mmHg 79%
08:00 +25°C° 0 mm 1 mps 735 mmHg 68%
09:00 +28°C° 0 mm 1 mps 735 mmHg 57%
10:00 +31°C° 0 mm 1 mps 735 mmHg 46%
11:00 +32°C° 0 mm 1 mps 735 mmHg 41%
12:00 +33°C° 0 mm 1 mps 735 mmHg 36%
13:00 +34°C° 0 mm 1 mps 735 mmHg 31%
14:00 +34°C° 0 mm 1 mps 734 mmHg 31%
15:00 +34°C° 0 mm 1 mps 734 mmHg 31%
16:00 +34°C° 0 mm 1 mps 733 mmHg 31%
17:00 +31°C° 0 mm 1 mps 733 mmHg 42%
18:00 +28°C° 0 mm 1 mps 733 mmHg 53%
19:00 +24°C° 0 mm 0 mps 733 mmHg 63%
20:00 +23°C° 0 mm 0 mps 733 mmHg 64%
21:00 +24°C° 0 mm 1 mps 733 mmHg 65%
22:00 +22°C° 0 mm 1 mps 733 mmHg 66%
23:00 +22°C° 0 mm 1 mps 733 mmHg 66%

11 August, Tuesday

Time Temperature Precipitation Wind Pressure Humidity
00:00 +22°C° 0 mm 1 mps 733 mmHg 66%
01:00 +21°C° 0 mm 1 mps 733 mmHg 66%
02:00 +21°C° 0 mm 1 mps 733 mmHg 67%
03:00 +20°C° 0 mm 1 mps 733 mmHg 68%
04:00 +20°C° 0 mm 1 mps 732 mmHg 69%
05:00 +21°C° 0 mm 1 mps 733 mmHg 70%
06:00 +22°C° 0 mm 1 mps 733 mmHg 70%
07:00 +22°C° 0 mm 1 mps 733 mmHg 71%
08:00 +25°C° 0 mm 1 mps 733 mmHg 62%
09:00 +28°C° 0 mm 1 mps 734 mmHg 53%
10:00 +31°C° 0 mm 1 mps 734 mmHg 44%
11:00 +33°C° 0 mm 1 mps 734 mmHg 39%
12:00 +34°C° 0 mm 1 mps 733 mmHg 35%
13:00 +35°C° 0 mm 1 mps 733 mmHg 31%
14:00 +35°C° 0 mm 1 mps 733 mmHg 31%
15:00 +35°C° 0 mm 1 mps 733 mmHg 31%
16:00 +35°C° 0 mm 1 mps 732 mmHg 31%
17:00 +32°C° 0 mm 1 mps 732 mmHg 41%
18:00 +27°C° 0 mm 0 mps 732 mmHg 51%
19:00 +25°C° 0 mm 0 mps 732 mmHg 61%
20:00 +24°C° 0 mm 0 mps 732 mmHg 62%
21:00 +23°C° 0 mm 0 mps 733 mmHg 62%
22:00 +22°C° 0 mm 0 mps 733 mmHg 63%
23:00 +23°C° 0 mm 1 mps 733 mmHg 65%

12 August, Wednesday

Time Temperature Precipitation Wind Pressure Humidity
00:00 +23°C° 0 mm 1 mps 733 mmHg 66%
01:00 +22°C° 0 mm 1 mps 733 mmHg 68%
02:00 +22°C° 0 mm 1 mps 733 mmHg 68%
03:00 +22°C° 0 mm 1 mps 733 mmHg 68%
04:00 +21°C° 0 mm 1 mps 733 mmHg 69%
05:00 +20°C° 0 mm 0 mps 733 mmHg 70%
06:00 +21°C° 0 mm 0 mps 733 mmHg 72%
07:00 +22°C° 0 mm 0 mps 734 mmHg 73%
08:00 +25°C° 0 mm 0 mps 734 mmHg 64%
09:00 +28°C° 0 mm 0 mps 734 mmHg 56%
10:00 +31°C° 0 mm 0 mps 735 mmHg 47%
11:00 +33°C° 0 mm 0 mps 734 mmHg 43%
12:00 +34°C° 0 mm 0 mps 734 mmHg 39%
13:00 +36°C° 0 mm 0 mps 734 mmHg 34%
14:00 +34°C° 0 mm 0 mps 734 mmHg 39%
15:00 +35°C° 0 mm 1 mps 733 mmHg 43%
16:00 +34°C° 0 mm 1 mps 733 mmHg 47%
17:00 +31°C° 0.2 mm 1 mps 733 mmHg 59%
18:00 +28°C° 0.2 mm 2 mps 733 mmHg 71%
19:00 +25°C° 0.2 mm 3 mps 733 mmHg 83%
20:00 +24°C° 0.1 mm 2 mps 733 mmHg 86%
21:00 +23°C° 0.1 mm 1 mps 733 mmHg 88%
22:00 +22°C° 0.1 mm 1 mps 734 mmHg 91%
23:00 +20°C° 0 mm 0 mps 734 mmHg 92%
Show more